Regional Weather Roundup
Issued by NWS

Home | Current Version | Previous Version | Text Only | Print | Product List | Glossary On
Versions: 1 2 3 4 5 6 7 8 9 10 11 12 13 14 15 16 17 18 19 20 21 22 23 24 25 26 27 28 29 30 31 32 33 34 35 36 37 38 39 40 41 42 43 44 45 46 47 48 49 50
000
ASUS45 KREV 281010
RWRNV
NEVADA REGIONAL WEATHER ROUNDUP
NATIONAL WEATHER SERVICE RENO NV
300 AM PDT SAT MAY 28 2016

NOTE: "FAIR" INDICATES FEW OR NO CLOUDS BELOW 12,000 FEET WITH NO
SIGNIFICANT WEATHER AND/OR OBSTRUCTIONS TO VISIBILITY.

NVZ001-003-004-281100-
WESTERN NEVADA

CITY           SKY/WX    TMP DP  RH WIND       PRES   REMARKS
RENO           PTCLDY    54  33  45 N7        30.00S
CARSON CITY    FAIR      50  36  57 E3        30.02S
MINDEN         FAIR      41  37  87 E6        30.01F
SLIDE MTN        N/A     36  25  64 NE12        N/A
FALLON         CLEAR     52  26  36 CALM      29.96S
LOVELOCK       CLEAR     53  23  31 N9        29.98S
HAWTHORNE      CLEAR     59  32  36 W8        29.97S
$$

NVZ002-CAZ072-073-281100-
NORTHERN AND CENTRAL SIERRA

CITY           SKY/WX    TMP DP  RH WIND       PRES   REMARKS
S. LAKE TAHOE  CLEAR     36  30  79 CALM      30.04F
TRUCKEE        CLEAR     32  32 100 CALM      30.05F
SQUAW VLY 8000 NOT AVBL
SUSANVILLE     CLEAR     46  34  61 SW3       30.02F
BLUE CANYON    CLEAR     53  32  44 E5        29.99F
MAMMOTH LAKES  FAIR      42  34  73 W6        30.07S
BRIDGEPORT     FAIR      38  26  62 N3        30.05F
$$

NVZ030-031-036-281100-
NORTHERN NEVADA

CITY           SKY/WX    TMP DP  RH WIND       PRES   REMARKS
ELKO           CLEAR     42  36  79 CALM      30.02S
WINNEMUCCA     CLEAR     49  19  30 N8        30.02R
WENDOVER       MOCLDY    54  39  58 SW5       30.00S
$$

NVZ035-037-281100-
CENTRAL NEVADA

CITY           SKY/WX    TMP DP  RH WIND       PRES   REMARKS
ELY            MOCLDY    37  32  82 S3        30.04S
EUREKA           N/A     39  32  76 CALM      30.03S
$$

NVZ013-014-281100-
SOUTH CENTRAL NEVADA

CITY           SKY/WX    TMP DP  RH WIND       PRES   REMARKS
TONOPAH        MOCLDY    57  34  41 SE8       29.97S
$$

NVZ017-020-022-281100-
SOUTHERN NEVADA

CITY           SKY/WX    TMP DP  RH WIND       PRES   REMARKS
LAS VEGAS      CLEAR     73  27  18 S3        29.75S
N. LAS VEGAS   CLEAR     71  32  23 N5        29.78S
NELLIS AFB     CLEAR     70  33  25 CALM      29.77S
HENDERSON      CLEAR     72  30  21 S14       29.81F
MERCURY        CLEAR     63  27  25 CALM      29.84S
$$



USA.gov is the U.S. government's official web portal to all federal, state and local government web resources and services.